TimePDT,TemperatureF,Dew PointF,Humidity,Sea Level PressureIn,VisibilityMPH,Wind Direction,Wind SpeedMPH,Gust SpeedMPH,PrecipitationIn,Events,Conditions,WindDirDegrees,DateUTC
12:15 AM,71.6,57.2,60,29.75,9.0,Calm,Calm,-,N/A,,Clear,0,2013-09-09 07:15:00
12:35 AM,71.6,55.4,57,29.75,8.0,Calm,Calm,-,N/A,,Clear,0,2013-09-09 07:35:00
12:55 AM,69.8,57.2,64,29.76,8.0,SE,4.6,-,N/A,,Clear,130,2013-09-09 07:55:00
1:15 AM,69.8,57.2,64,29.75,10.0,Calm,Calm,-,N/A,,Clear,0,2013-09-09 08:15:00
1:35 AM,71.6,57.2,60,29.75,10.0,Calm,Calm,-,N/A,,Clear,0,2013-09-09 08:35:00
1:55 AM,71.6,57.2,60,29.76,10.0,ESE,4.6,-,N/A,,Clear,110,2013-09-09 08:55:00
2:15 AM,71.6,57.2,60,29.75,10.0,Calm,Calm,-,N/A,,Clear,0,2013-09-09 09:15:00
2:35 AM,71.6,57.2,60,29.74,10.0,Calm,Calm,-,N/A,,Clear,0,2013-09-09 09:35:00
2:55 AM,69.8,57.2,64,29.74,10.0,Calm,Calm,-,N/A,,Clear,0,2013-09-09 09:55:00
3:15 AM,68.0,55.4,64,29.74,10.0,Calm,Calm,-,N/A,,Clear,0,2013-09-09 10:15:00
3:35 AM,69.8,55.4,60,29.73,10.0,Calm,Calm,-,N/A,,Clear,0,2013-09-09 10:35:00
3:55 AM,66.2,57.2,73,29.73,9.0,Calm,Calm,-,N/A,,Clear,0,2013-09-09 10:55:00
4:15 AM,66.2,55.4,68,29.73,10.0,ESE,3.5,-,N/A,,Clear,110,2013-09-09 11:15:00
4:35 AM,66.2,57.2,73,29.73,10.0,ESE,3.5,-,N/A,,Clear,110,2013-09-09 11:35:00
4:55 AM,66.2,57.2,73,29.73,10.0,Calm,Calm,-,N/A,,Clear,0,2013-09-09 11:55:00
5:15 AM,66.2,57.2,73,29.73,10.0,Calm,Calm,-,N/A,,Clear,0,2013-09-09 12:15:00
5:35 AM,66.2,57.2,73,29.73,10.0,Calm,Calm,-,N/A,,Clear,0,2013-09-09 12:35:00
5:55 AM,64.4,55.4,73,29.74,8.0,South,3.5,-,N/A,,Clear,190,2013-09-09 12:55:00
6:15 AM,64.4,55.4,73,29.74,9.0,SSW,5.8,-,N/A,,Clear,210,2013-09-09 13:15:00
6:35 AM,64.4,55.4,73,29.74,8.0,Calm,Calm,-,N/A,,Clear,0,2013-09-09 13:35:00
6:55 AM,64.4,55.4,73,29.74,6.0,Calm,Calm,-,N/A,,Clear,0,2013-09-09 13:55:00
7:15 AM,64.4,55.4,73,29.75,6.0,Calm,Calm,-,N/A,,Clear,0,2013-09-09 14:15:00
7:35 AM,66.2,55.4,68,29.75,6.0,South,5.8,-,N/A,,Clear,190,2013-09-09 14:35:00
7:55 AM,68.0,57.2,68,29.76,8.0,SSW,4.6,-,N/A,,Clear,210,2013-09-09 14:55:00
8:15 AM,69.8,57.2,64,29.76,7.0,Calm,Calm,-,N/A,,Clear,0,2013-09-09 15:15:00
8:35 AM,71.6,57.2,60,29.76,9.0,South,3.5,-,N/A,,Clear,190,2013-09-09 15:35:00
8:55 AM,73.4,59.0,61,29.77,9.0,South,4.6,-,N/A,,Clear,180,2013-09-09 15:55:00
9:15 AM,75.2,59.0,57,29.77,9.0,SSW,4.6,-,N/A,,Clear,200,2013-09-09 16:15:00
9:35 AM,77.0,57.2,50,29.77,10.0,SSW,4.6,-,N/A,,Clear,200,2013-09-09 16:35:00
9:55 AM,78.8,55.4,44,29.77,10.0,SSW,5.8,-,N/A,,Clear,200,2013-09-09 16:55:00
10:15 AM,80.6,55.4,42,29.77,10.0,SSW,5.8,-,N/A,,Clear,200,2013-09-09 17:15:00
10:35 AM,80.6,55.4,42,29.77,10.0,SSW,5.8,-,N/A,,Clear,200,2013-09-09 17:35:00
10:55 AM,82.4,55.4,39,29.76,10.0,SSW,5.8,-,N/A,,Clear,210,2013-09-09 17:55:00
11:15 AM,84.2,55.4,37,29.76,10.0,South,5.8,-,N/A,,Clear,190,2013-09-09 18:15:00
11:35 AM,84.2,55.4,37,29.75,10.0,South,5.8,-,N/A,,Clear,190,2013-09-09 18:35:00
11:55 AM,86.0,55.4,35,29.74,10.0,South,5.8,-,N/A,,Clear,180,2013-09-09 18:55:00
12:15 PM,87.8,55.4,33,29.74,10.0,SW,6.9,-,N/A,,Clear,230,2013-09-09 19:15:00
12:35 PM,87.8,57.2,35,29.73,10.0,West,5.8,-,N/A,,Clear,260,2013-09-09 19:35:00
12:55 PM,89.6,57.2,33,29.73,10.0,West,5.8,-,N/A,,Clear,260,2013-09-09 19:55:00
1:15 PM,89.6,57.2,33,29.72,10.0,WNW,6.9,-,N/A,,Clear,290,2013-09-09 20:15:00
1:35 PM,89.6,55.4,31,29.71,10.0,West,4.6,-,N/A,,Clear,270,2013-09-09 20:35:00
1:55 PM,91.4,57.2,31,29.70,10.0,West,3.5,-,N/A,,Clear,280,2013-09-09 20:55:00
2:15 PM,91.4,59.0,34,29.69,9.0,West,5.8,-,N/A,,Clear,270,2013-09-09 21:15:00
2:35 PM,91.4,57.2,31,29.69,10.0,West,6.9,-,N/A,,Clear,260,2013-09-09 21:35:00
2:55 PM,91.4,57.2,31,29.68,10.0,West,5.8,-,N/A,,Clear,260,2013-09-09 21:55:00
3:15 PM,93.2,57.2,30,29.67,10.0,West,8.1,-,N/A,,Clear,280,2013-09-09 22:15:00
3:35 PM,93.2,57.2,30,29.66,10.0,West,6.9,-,N/A,,Clear,270,2013-09-09 22:35:00
3:55 PM,95.0,57.2,28,29.66,10.0,NW,5.8,-,N/A,,Clear,320,2013-09-09 22:55:00
4:15 PM,95.0,55.4,26,29.65,10.0,NNW,9.2,-,N/A,,Clear,340,2013-09-09 23:15:00
4:35 PM,95.0,55.4,26,29.65,10.0,NW,9.2,-,N/A,,Clear,320,2013-09-09 23:35:00
4:55 PM,96.8,55.4,25,29.64,10.0,NW,9.2,-,N/A,,Clear,320,2013-09-09 23:55:00
5:15 PM,95.0,53.6,25,29.64,10.0,NNW,6.9,-,N/A,,Clear,340,2013-09-10 00:15:00
5:35 PM,96.8,53.6,23,29.64,10.0,North,9.2,-,N/A,,Clear,360,2013-09-10 00:35:00
5:55 PM,95.0,50.0,22,29.64,10.0,North,5.8,-,N/A,,Clear,350,2013-09-10 00:55:00
6:15 PM,95.0,48.2,20,29.64,10.0,North,5.8,-,N/A,,Clear,350,2013-09-10 01:15:00
6:35 PM,93.2,50.0,23,29.64,10.0,NNW,4.6,-,N/A,,Clear,340,2013-09-10 01:35:00
6:55 PM,91.4,51.8,26,29.64,10.0,Calm,Calm,-,N/A,,Clear,0,2013-09-10 01:55:00
7:15 PM,89.6,53.6,29,29.64,10.0,Calm,Calm,-,N/A,,Clear,0,2013-09-10 02:15:00
7:35 PM,84.2,55.4,37,29.64,10.0,Calm,Calm,-,N/A,,Clear,0,2013-09-10 02:35:00
7:55 PM,82.4,55.4,39,29.65,10.0,WNW,5.8,-,N/A,,Clear,290,2013-09-10 02:55:00
8:15 PM,80.6,57.2,45,29.65,10.0,ESE,3.5,-,N/A,,Clear,110,2013-09-10 03:15:00
8:35 PM,80.6,55.4,42,29.66,10.0,Calm,Calm,-,N/A,,Clear,0,2013-09-10 03:35:00
8:55 PM,80.6,55.4,42,29.66,10.0,Calm,Calm,-,N/A,,Clear,0,2013-09-10 03:55:00
9:15 PM,78.8,55.4,44,29.67,10.0,Calm,Calm,-,N/A,,Clear,0,2013-09-10 04:15:00
9:35 PM,75.2,55.4,50,29.67,10.0,Calm,Calm,-,N/A,,Clear,0,2013-09-10 04:35:00
9:55 PM,75.2,57.2,53,29.67,10.0,Calm,Calm,-,N/A,,Clear,0,2013-09-10 04:55:00
10:15 PM,75.2,57.2,53,29.68,10.0,Calm,Calm,-,N/A,,Clear,0,2013-09-10 05:15:00
10:35 PM,75.2,57.2,53,29.68,10.0,Calm,Calm,-,N/A,,Clear,0,2013-09-10 05:35:00
10:55 PM,73.4,55.4,53,29.69,10.0,SW,4.6,-,N/A,,Clear,220,2013-09-10 05:55:00
11:15 PM,73.4,57.2,57,29.69,10.0,Calm,Calm,-,N/A,,Clear,0,2013-09-10 06:15:00
11:35 PM,73.4,57.2,57,29.69,10.0,Calm,Calm,-,N/A,,Clear,0,2013-09-10 06:35:00
11:55 PM,71.6,55.4,57,29.69,10.0,Calm,Calm,-,N/A,,Clear,0,2013-09-10 06:55:00